Flag for Canada Weather past 2 weeks in Ottawa, Ontario, Canada

Now
23 °F

Passing clouds.


Feels Like: 18 °F
Forecast: 26 / 49 °F
Wind: 3 mph from South

Location: Ottawa Int'L. Ont.


UV Index: 5 (Moderate)

Visibility: 15 mi


Pressure: 30.67 "Hg

Humidity: 80%

Dew point: 18 °F

Location of OttawaLocation

Historic Weather in Ottawa

°F

Ottawa temperature yesterday

Maximum temperature yesterday: 36 °F (at 6:00 PM)
Minimum temperature yesterday: 16 °F (at 4:00 AM)
Average temperature yesterday: 25 °F

Past Weeks' High & Low Weather Summary

 TemperatureHumidityPressure
High77 °F (Apr 14, 1:00 PM)100% (Apr 4, 9:00 PM)30.65 "Hg (Apr 4, 9:00 PM)
Low16 °F (Apr 16, 4:00 AM)31% (Apr 9, 4:00 PM)29.27 "Hg (Apr 8, 12:00 PM)
Average39 °F69%29.92 "Hg
* Reported Apr 2 2:00 AM — Apr 17 2:00 AM, Ottawa, Weather by CustomWeather, © 2014

Note: Actual official high and low records may vary slightly from our data, if they occured in-between our weather recording intervals... More about our weather records

Advertising

Historic Weather Conditions — Data for Previous 24 hours

 ConditionsComfort  
Time TempWeatherWind HumidityBarometerVisibility
2:00 AM
Apr 17
23 °FPassing clouds.6 mph80%30.65 "Hg15 mi
1:00 AM25 °FPassing clouds.6 mph80%30.64 "Hg15 mi
12:00 AM27 °FPassing clouds.6 mph74%30.62 "Hg15 mi
11:00 PM
Apr 16
27 °FPassing clouds.7 mph74%30.60 "Hg15 mi
10:00 PM28 °FPassing clouds.7 mph64%30.59 "Hg15 mi
9:00 PM28 °FClear.7 mph59%30.56 "Hg15 mi
8:00 PM32 °FPassing clouds.2 mph44%30.53 "Hg15 mi
7:00 PM34 °FScattered clouds.7 mph41%30.52 "Hg15 mi
6:00 PM36 °FScattered clouds.8 mph41%30.51 "Hg15 mi
5:00 PM32 °FScattered clouds.9 mph47%30.50 "Hg15 mi
4:00 PM34 °FScattered clouds.7 mph41%30.49 "Hg15 mi
3:00 PM32 °FScattered clouds.12 mph40%30.50 "Hg15 mi
2:00 PM30 °FPassing clouds.9 mph37%30.50 "Hg15 mi
1:00 PM28 °FPassing clouds.8 mph43%30.49 "Hg15 mi
12:00 PM27 °FPassing clouds.15 mph46%30.49 "Hg15 mi
11:00 AM23 °FPassing clouds.13 mph54%30.47 "Hg15 mi
10:00 AM21 °FPassing clouds.9 mph58%30.46 "Hg15 mi
9:00 AM19 °FScattered clouds.13 mph68%30.42 "Hg15 mi
8:00 AM18 °FPassing clouds.12 mph68%30.37 "Hg15 mi
7:00 AM16 °FPassing clouds.12 mph73%30.33 "Hg15 mi
6:00 AM16 °FPassing clouds.12 mph67%30.28 "Hg15 mi
5:00 AM16 °FPassing clouds.10 mph67%30.21 "Hg15 mi
4:00 AM16 °FClear.12 mph73%30.17 "Hg15 mi
3:00 AM18 °FClear.17 mph68%30.12 "Hg15 mi
Weather by CustomWeather, © 2014

See weather overview